Location: Poprad
(49.0500°N, 20.3000°E)
Time: 09:09:27
(UTC+02:00)

ISS - Visible Passes

Search period start: 19 October 2019 00:00
Search period end: 28 October 2019 23:00
Orbit: 411 x 421 km, 51.6° (Epoch: 19 October)

Date Brightness Start Highest point End Pass type
(mag) Time Alt. Az. Time Alt. Az. Time Alt. Az.
25 Oct -1.1 06:02:28 10° S 06:04:54 19° SE 06:07:21 10° E visible
26 Oct -0.8 05:15:05 10° SSE 05:16:32 12° SE 05:17:57 10° ESE visible
27 Oct -2.5 05:00:59 10° SW 05:04:09 39° SSE 05:07:19 10° ENE visible
28 Oct -2.0 04:14:43 23° S 04:15:39 26° SE 04:18:31 10° E visible
